[[{"header":{"parameterUnit":"m.s-1","parameterCategory":1,"la1":30.2991,"la2":30.254,"lo1":-89.0895,"lo2":-89.0444,"dy":0.0017,"dx":0.0017,"nx":28,"ny":28,"refTime":"2024-02-09T03:00:00:Z","depth":0,"parameterNumber":2,"parameterNumberName":"U-component_of_WINDS"},"data":[0,0,0,0,0,0,0,0,0,0,0,0,0,0,0,0,0,0,0,0,0,0,0,0,0,0,0,0,0,0,0,0,0,0,0,0,0,0,0,0,0,0,0,0,0,0,0,0,0,0,0,0,0,0,0,0,0,0,-2.9142,-2.9143,0,-2.9242,-2.9244,-2.9245,-2.9228,-2.9226,-2.9224,-2.9223,-2.9325,-2.9329,-2.9334,0,0,0,0,0,0,0,0,0,0,0,0,0,-2.8934,-2.8938,-2.9142,-2.9143,-2.9144,-2.9242,-2.9244,-2.9245,-2.9228,-2.9226,-2.9224,-2.9222,-2.9324,-2.9329,-2.9334,0,0,0,0,0,0,0,0,0,0,0,0,0,-2.9028,-2.8939,-2.9141,-2.9148,-2.9149,-2.9242,-2.9244,-2.9245,-2.9229,-2.9226,-2.9223,-2.9221,-2.9322,-2.9328,-2.9335,-2.9427,0,0,-2.9355,-2.9358,0,0,0,0,0,0,0,0,-2.9023,-2.9036,-2.9145,-2.9147,-2.9149,-2.922,-2.9208,-2.9306,-2.9229,-2.9199,-2.9223,-2.922,-2.9292,-2.9301,-2.9326,-2.9432,-2.9437,-2.9355,-2.9359,-2.9362,-2.9364,0,0,0,0,0,0,0,-2.9017,-2.9032,-2.9181,-2.9147,-2.9149,-2.9145,-2.9156,-2.9226,-2.9259,-2.9201,-2.92,-2.9212,-2.9293,-2.9319,-2.9328,-2.9438,-2.9355,-2.9361,-2.9365,-2.9368,-2.9625,-2.9628,0,0,0,0,0,0,-2.9008,-2.9026,-2.9178,-2.9184,-2.9078,-2.9151,-2.9163,-2.92,-2.9258,-2.9264,-2.9214,-2.9211,-2.931,-2.932,-2.9331,-2.9443,-2.9362,-2.9368,-2.9372,-2.9622,-2.9626,-2.9629,0,0,0,0,0,0,-2.9004,-2.9022,-2.9174,-2.9105,-2.9124,-2.9157,-2.9199,-2.9203,-2.923,-2.9268,-2.9274,-2.9236,-2.9308,-2.9322,-2.9404,-2.9446,-2.9371,-2.9377,-2.9619,-2.9623,-2.9627,-2.9667,0,0,0,0,0,0,-2.8998,-2.9021,-2.9056,-2.9106,-2.9128,-2.9245,-2.9202,-2.9207,-2.9241,-2.9238,-2.929,-2.9296,-2.9307,-2.9394,-2.941,-2.9454,-2.9382,-2.9615,-2.9621,-2.9626,-2.9662,-2.9672,-2.9681,0,0,0,0,0,-2.8991,-2.9064,-2.9058,-2.9077,-2.9173,-2.9248,-2.926,-2.9272,-2.9245,-2.9281,-2.9305,-2.9294,-2.9439,-2.9402,-2.942,-2.9467,-2.9612,-2.9619,-2.9625,-2.9658,-2.967,-2.9681,0,0,0,0,0,0,-2.9018,-2.907,-2.9065,-2.9156,-2.9197,-2.9245,-2.929,-2.9285,-2.9334,-2.9329,-2.9342,-2.9353,-2.9436,-2.946,-2.9418,-2.9559,-2.9522,-2.9532,-2.954,-2.9553,-2.9562,-2.9554,-2.9388,0,0,0,0,0,-2.9034,-2.909,-2.9133,-2.9209,-2.9231,-2.9257,-2.929,-2.9295,-2.9339,-2.9356,-2.9386,-2.9429,-2.9484,-2.952,-2.9573,-2.9666,-2.9676,-2.9707,-2.9716,-2.9724,-2.9732,-2.9783,-2.9797,-2.965,-2.965,-2.965,0,0,-2.9069,-2.9105,-2.9139,-2.9216,-2.9248,-2.9306,-2.9272,-2.9334,-2.9376,-2.9365,-2.9444,-2.9468,-2.9516,-2.9603,-2.9643,-2.9626,-2.9775,-2.9732,-2.9738,-2.9743,-2.9791,-2.9805,-2.9817,-2.9655,-2.9654,-2.9653,0,0,-2.9161,-2.9194,-2.9261,-2.9295,-2.9345,-2.9362,-2.9378,-2.9426,-2.9442,-2.9521,-2.9513,-2.9564,-2.9659,-2.9693,-2.9723,-2.9828,-2.982,-2.9845,-2.9895,-2.9944,-2.9955,-2.9965,-3.0002,-3.0015,-2.9854,-2.9854,-2.9854,0,-2.9198,-2.9284,-2.9296,-2.9359,-2.9393,-2.9386,-2.9453,-2.9485,-2.955,-2.9573,-2.9552,-2.9671,-2.9703,-2.9798,-2.9824,-2.9849,-2.9867,-2.9839,-2.9952,-2.9963,-2.9973,-3.0008,-3.0022,-2.9857,-2.9857,-2.9856,-2.9856,0,-2.9326,-2.9386,-2.9434,-2.9497,-2.9536,-2.9601,-2.9623,-2.9661,-2.9663,-2.9682,-2.9763,-2.9801,-2.9861,-2.9884,-2.9887,-2.998,-2.9967,-2.995,-2.9912,-2.9989,-3.0022,-3.0036,-2.9861,-2.986,-2.9859,-2.9858,0,0,-2.9438,-2.9506,-2.9524,-2.9552,-2.9607,-2.9653,-2.9718,-2.9777,-2.9809,-2.9854,-2.9908,-2.9988,-2.9973,-3.0006,-3.0013,-3.0056,-3.0136,-3.0034,-3.0035,-3.005,-3.024,-3.0252,-3.0267,-3.0131,-3.0134,-3.0136,-3.0235,0,-2.9534,-2.9648,-2.9661,-2.9763,-2.9818,-2.9812,-2.9868,-2.9908,-2.9927,-2.9977,-2.9999,-3.0055,-3.003,-3.0051,-3.0093,-3.0118,-3.0174,-3.0111,-3.0181,-3.0183,-3.0168,-3.0285,-3.0298,-3.039,-3.0249,-3.0251,-3.0252,0,-2.9662,-2.9711,-2.9818,-2.9865,-2.9889,-2.9939,-2.9994,-3.0041,-3.0086,-3.0097,-3.0135,-3.0136,-3.0202,-3.0163,-3.0254,-3.0211,-3.024,-3.0256,-3.026,-3.0266,-3.0222,-3.0293,-3.042,-3.0433,-3.0273,-3.0272,-3.027,0,-2.9731,-2.9824,-2.99,-2.9924,-2.9981,-3.0016,-3.0042,-3.0084,-3.0118,-3.0166,-3.0189,-3.0244,-3.0274,-3.0317,-3.0332,-3.0302,-3.0422,-3.0384,-3.0433,-3.0432,-3.0457,-3.0455,-3.0589,-3.0478,-3.0478,-3.0478,-3.0477,0,-2.9837,-2.9903,-2.9931,-2.9978,-3.0051,-3.0065,-3.0137,-3.0161,-3.0198,-3.0249,-3.0248,-3.0295,-3.0314,-3.0364,-3.0377,-3.045,-3.0464,-3.0474,-3.0476,-3.0474,-3.0472,-3.0492,-3.0486,-3.0481,-3.0481,-3.048,-3.0479,0,-2.9926,-2.9948,-3.0031,-3.0078,-3.0091,-3.0143,-3.0183,-3.0228,-3.0247,-3.0311,-3.0327,-3.0357,-3.0417,-3.0437,-3.0509,-3.0518,-3.0602,-3.06,-3.0587,-3.0587,-3.0634,-3.0629,-3.0784,-3.0805,-3.0682,-3.0683,-3.0684,0,-2.9992,-3.0042,-3.0095,-3.0129,-3.0156,-3.021,-3.0246,-3.0262,-3.0298,-3.0353,-3.0391,-3.045,-3.0498,-3.0593,-3.0621,-3.0676,-3.0674,-3.0725,-3.0682,-3.0677,-3.0673,-3.067,-3.0675,-3.0732,-3.0734,-3.0735,-3.0736,0,-3.0106,-3.0114,-3.0165,-3.022,-3.0263,-3.0307,-3.0349,-3.0377,-3.0399,-3.044,-3.0501,-3.0538,-3.0612,-3.067,-3.0726,-3.0752,-3.0747,-3.0749,-3.0763,-3.076,-3.075,-3.0755,-3.0607,-3.0745,-3.0744,-3.0743,-3.0743,-3.0742,-3.0185,-3.0229,-3.0273,-3.033,-3.0363,-3.0403,-3.0447,-3.0472,-3.0523,-3.0584,-3.0591,-3.0656,-3.0699,-3.0774,-3.0802,-3.0853,-3.0839,-3.0859,-3.0864,-3.0869,-3.0872,-3.0743,-3.0864,-3.0863,-3.0863,-3.0863,-3.0863,0,-3.0298,-3.0326,-3.0378,-3.0437,-3.0482,-3.0475,-3.0521,-3.0559,-3.0616,-3.0657,-3.0704,-3.0774,-3.083,-3.0863,-3.092,-3.0954,-3.0953,-3.0968,-3.0965,-3.0971,-3.0882,-3.0864,-3.0968,-3.0968,-3.0968,-3.0968,-3.0968,-3.0968,-3.0361,-3.0435,-3.0449,-3.054,-3.0567,-3.0631,-3.0658,-3.0695,-3.0727,-3.0805,-3.0852,-3.0873,-3.0911,-3.097,-3.1021,-3.103,-3.105,-3.1066,-3.1073,-3.0988,-3.0978,-3.0967,-3.095,-3.1071,-3.1071,-3.1158,-3.1158,-3.1159]},{"header":{"parameterUnit":"m.s-1","parameterCategory":1,"la1":30.2991,"la2":30.254,"lo1":-89.0895,"lo2":-89.0444,"dy":0.0017,"dx":0.0017,"nx":28,"ny":28,"refTime":"2024-02-09T03:00:00:Z","depth":0,"parameterNumber":3,"parameterNumberName":"V-component_of_WINDS"},"data":[0,0,0,0,0,0,0,0,0,0,0,0,0,0,0,0,0,0,0,0,0,0,0,0,0,0,0,0,0,0,0,0,0,0,0,0,0,0,0,0,0,0,0,0,0,0,0,0,0,0,0,0,0,0,0,0,0,0,1.9425,1.9427,0,1.954,1.9542,1.9543,1.9592,1.9592,1.9592,1.9592,1.9707,1.971,1.9713,0,0,0,0,0,0,0,0,0,0,0,0,0,1.9245,1.9248,1.9425,1.9427,1.9428,1.954,1.9542,1.9543,1.9593,1.9592,1.9592,1.9592,1.9706,1.9709,1.9713,0,0,0,0,0,0,0,0,0,0,0,0,0,1.9338,1.9249,1.9425,1.9466,1.9471,1.954,1.9542,1.9544,1.9593,1.9592,1.9592,1.9592,1.9704,1.9709,1.9714,1.9749,0,0,1.9729,1.9731,0,0,0,0,0,0,0,0,1.9333,1.9345,1.9459,1.9464,1.9469,1.9552,1.952,1.9612,1.9593,1.9546,1.9592,1.9592,1.9655,1.9664,1.9686,1.9754,1.9759,1.9729,1.9732,1.9734,1.9735,0,0,0,0,0,0,0,1.9326,1.934,1.9471,1.946,1.9467,1.9478,1.9491,1.9538,1.9601,1.955,1.9554,1.9567,1.9658,1.9681,1.9689,1.9761,1.9729,1.9733,1.9736,1.9738,1.9864,1.9865,0,0,0,0,0,0,1.9313,1.9334,1.9467,1.9474,1.9399,1.9482,1.9496,1.9525,1.96,1.9612,1.9567,1.9569,1.9673,1.9683,1.9693,1.974,1.9734,1.9738,1.9741,1.9864,1.9864,1.9865,0,0,0,0,0,0,1.9309,1.9325,1.9462,1.9405,1.9424,1.9485,1.9518,1.9528,1.9552,1.9613,1.9624,1.958,1.9673,1.9687,1.9735,1.9745,1.9741,1.9745,1.9863,1.9864,1.9864,1.9833,0,0,0,0,0,0,1.9304,1.9323,1.9338,1.9405,1.9427,1.9503,1.9518,1.953,1.956,1.9563,1.9628,1.9639,1.9674,1.9728,1.974,1.9751,1.9749,1.9863,1.9863,1.9864,1.9834,1.9833,1.9832,0,0,0,0,0,1.9297,1.9324,1.9338,1.9354,1.9447,1.9504,1.9516,1.9557,1.9561,1.9576,1.9615,1.9637,1.9741,1.9732,1.9746,1.9759,1.9862,1.9863,1.9864,1.9834,1.9833,1.9832,0,0,0,0,0,0,1.9255,1.9333,1.935,1.94,1.9445,1.9512,1.9532,1.9554,1.9599,1.96,1.9648,1.9662,1.9707,1.9738,1.9726,1.9797,1.9804,1.9807,1.9776,1.9775,1.9774,1.9766,1.9753,0,0,0,0,0,1.9251,1.9292,1.9358,1.9395,1.9417,1.947,1.9497,1.9525,1.9573,1.9592,1.9635,1.968,1.9724,1.9751,1.9794,1.9838,1.9853,1.9854,1.9853,1.9852,1.9855,1.9881,1.9882,1.9868,1.9868,1.9868,0,0,1.9244,1.9292,1.9315,1.9388,1.9426,1.9466,1.9486,1.9528,1.9558,1.9598,1.9647,1.968,1.9734,1.978,1.9803,1.9807,1.9862,1.9853,1.9852,1.9856,1.9882,1.9883,1.9884,1.9869,1.9869,1.9868,0,0,1.9252,1.9292,1.9328,1.9366,1.9424,1.946,1.9468,1.9532,1.9556,1.9606,1.9637,1.9673,1.9746,1.9783,1.9811,1.9833,1.9854,1.9845,1.9841,1.9865,1.9867,1.9868,1.9876,1.9878,1.9848,1.9848,1.9848,0,1.9236,1.9299,1.9343,1.9384,1.9415,1.9454,1.949,1.9524,1.9592,1.9612,1.9617,1.971,1.9748,1.9804,1.981,1.9831,1.9842,1.9839,1.9863,1.9865,1.9866,1.9875,1.9877,1.9846,1.9847,1.9847,1.9847,0,1.9276,1.9319,1.9341,1.9408,1.9441,1.9479,1.9528,1.9556,1.9581,1.9615,1.9665,1.9713,1.9767,1.9782,1.9806,1.9841,1.9842,1.9854,1.9861,1.9866,1.9874,1.9878,1.9844,1.9845,1.9845,1.9846,0,0,1.9261,1.9352,1.9359,1.939,1.9457,1.949,1.9529,1.9583,1.9606,1.9652,1.9686,1.9747,1.9758,1.979,1.9819,1.984,1.9854,1.985,1.9852,1.9849,1.9896,1.9887,1.989,1.9868,1.9869,1.987,1.9892,0,1.9279,1.9352,1.9393,1.9449,1.949,1.9527,1.9561,1.9605,1.9638,1.9676,1.9712,1.9755,1.9767,1.9786,1.9809,1.9848,1.9864,1.9847,1.99,1.9901,1.9886,1.9895,1.9885,1.9904,1.9895,1.9896,1.9896,0,1.9309,1.9356,1.9416,1.9478,1.9497,1.9527,1.9579,1.9616,1.9666,1.9688,1.9724,1.9752,1.9794,1.9797,1.9855,1.9842,1.9866,1.9888,1.989,1.9897,1.99,1.9902,1.9911,1.9914,1.9902,1.9901,1.9901,0,1.9293,1.937,1.9417,1.9442,1.9515,1.9536,1.9567,1.9617,1.9647,1.9692,1.9711,1.976,1.9787,1.9823,1.9863,1.9862,1.9917,1.9924,1.9937,1.9936,1.9947,1.9946,1.996,1.9961,1.9961,1.9961,1.9961,0,1.9309,1.9345,1.9411,1.9439,1.948,1.9526,1.9564,1.9598,1.9642,1.9678,1.9712,1.9743,1.9795,1.9832,1.9864,1.9907,1.9919,1.9937,1.9946,1.9935,1.9933,1.9952,1.9952,1.9962,1.9962,1.9962,1.9962,0,1.9298,1.9344,1.9397,1.9462,1.948,1.9507,1.9562,1.9591,1.9626,1.9669,1.9682,1.9736,1.9783,1.9826,1.9888,1.9909,1.9952,1.9962,1.9936,1.9941,1.9951,1.995,1.9979,1.9985,1.9981,1.9981,1.9981,0,1.9306,1.9334,1.9403,1.943,1.9461,1.9503,1.9533,1.9579,1.9609,1.9668,1.969,1.9739,1.9781,1.9853,1.9897,1.9944,1.9956,1.9962,1.9963,1.9951,1.9956,1.9954,1.9957,1.9962,1.9961,1.9961,1.9961,0,1.9314,1.9336,1.9379,1.943,1.9466,1.9509,1.9552,1.9571,1.9625,1.9657,1.9706,1.9738,1.9801,1.9849,1.9901,1.9932,1.9956,1.9961,1.9966,1.9956,1.994,1.9949,1.9934,1.996,1.996,1.996,1.996,1.996,1.9314,1.9341,1.9394,1.9441,1.9478,1.9518,1.9548,1.9587,1.9629,1.9685,1.9709,1.9758,1.9806,1.9879,1.991,1.9948,1.9953,1.9961,1.9963,1.9965,1.9963,1.9933,1.9957,1.9957,1.9958,1.9958,1.9958,0,1.9324,1.936,1.9403,1.9464,1.95,1.952,1.9569,1.9598,1.9641,1.9685,1.9726,1.9782,1.9828,1.9876,1.9925,1.9946,1.9958,1.9958,1.9957,1.9964,1.9955,1.9946,1.9947,1.9947,1.9947,1.9947,1.9947,1.9947,1.9335,1.9382,1.9409,1.9475,1.951,1.956,1.9586,1.9623,1.9658,1.9719,1.9759,1.979,1.9835,1.9888,1.9931,1.9944,1.996,1.9957,1.9973,1.9964,1.9964,1.9965,1.9956,1.996,1.996,1.9978,1.9978,1.9979]}]]